| time (UTC) | temp F | wind direction | speed MPH | gust MPH | rain 1hr in | rain 24hr in | rain mn in | humidity % | barometer mb |
| 20260508162018 | 59 | 164 | 3.0 | 5.0 | 0.00 | 0.00 | 0.00 | 50 | 1023.0 |
| 20260508161518 | 59 | 196 | 1.0 | 5.0 | 0.00 | 0.00 | 0.00 | 51 | 1023.0 |
| 20260508161018 | 58 | 231 | 2.0 | 8.0 | 0.00 | 0.00 | 0.00 | 50 | 1023.0 |
| 20260508160517 | 59 | 202 | 4.0 | 8.0 | 0.00 | 0.00 | 0.00 | 46 | 1023.1 |
| 20260508160019 | 59 | 157 | 3.0 | 7.0 | 0.00 | 0.00 | 0.00 | 47 | 1023.1 |
| 20260508155519 | 60 | 194 | 2.0 | 6.0 | 0.00 | 0.00 | 0.00 | 48 | 1023.1 |
| 20260508155017 | 60 | 188 | 2.0 | 6.0 | 0.00 | 0.00 | 0.00 | 47 | 1023.1 |
| 20260508154517 | 60 | 157 | 2.0 | 7.0 | 0.00 | 0.00 | 0.00 | 48 | 1023.1 |
| 20260508154016 | 60 | 193 | 4.0 | 7.0 | 0.00 | 0.00 | 0.00 | 48 | 1023.0 |
| 20260508153517 | 60 | 76 | 1.0 | 6.0 | 0.00 | 0.00 | 0.00 | 48 | 1023.1 |
| 20260508153028 | 60 | 154 | 2.0 | 6.0 | 0.00 | 0.00 | 0.00 | 48 | 1023.1 |
| 20260508152519 | 60 | 198 | 2.0 | 4.0 | 0.00 | 0.00 | 0.00 | 47 | 1023.0 |
| 20260508152016 | 61 | 211 | 2.0 | 6.0 | 0.00 | 0.00 | 0.00 | 46 | 1023.0 |
| 20260508151516 | 61 | 154 | 1.0 | 6.0 | 0.00 | 0.00 | 0.00 | 45 | 1023.1 |
| 20260508151016 | 61 | 167 | 2.0 | 6.0 | 0.00 | 0.00 | 0.00 | 43 | 1023.1 |
| 20260508150517 | 60 | 90 | 2.0 | 6.0 | 0.00 | 0.00 | 0.00 | 45 | 1023.1 |
| 20260508150016 | 60 | 136 | 2.0 | 7.0 | 0.00 | 0.00 | 0.00 | 45 | 1023.1 |
| 20260508145514 | 61 | 195 | 2.0 | 6.0 | 0.00 | 0.00 | 0.00 | 45 | 1023.2 |
| 20260508145014 | 60 | 175 | 3.0 | 6.0 | 0.00 | 0.00 | 0.00 | 42 | 1023.2 |
| 20260508144524 | 60 | 235 | 3.0 | 9.0 | 0.00 | 0.00 | 0.00 | 42 | 1023.2 |
| 20260508144013 | 62 | 209 | 3.0 | 9.0 | 0.00 | 0.00 | 0.00 | 46 | 1023.3 |
| 20260508143512 | 62 | 99 | 1.0 | 6.0 | 0.00 | 0.00 | 0.00 | 46 | 1023.3 |
| 20260508143011 | 62 | 173 | 1.0 | 6.0 | 0.00 | 0.00 | 0.00 | 48 | 1023.3 |
| 20260508142510 | 62 | 155 | 1.0 | 6.0 | 0.00 | 0.00 | 0.00 | 50 | 1023.4 |
| 20260508142015 | 61 | 183 | 1.0 | 6.0 | 0.00 | 0.00 | 0.00 | 51 | 1023.4 |
| 20260508141512 | 61 | 97 | 1.0 | 5.0 | 0.00 | 0.00 | 0.00 | 49 | 1023.4 |
| 20260508141009 | 61 | 181 | 2.0 | 7.0 | 0.00 | 0.00 | 0.00 | 50 | 1023.4 |
| 20260508140509 | 61 | 194 | 2.0 | 7.0 | 0.00 | 0.00 | 0.00 | 51 | 1023.4 |
| 20260508140019 | 61 | 180 | 1.0 | 8.0 | 0.00 | 0.00 | 0.00 | 51 | 1023.4 |
| 20260508135510 | 61 | 157 | 1.0 | 8.0 | 0.00 | 0.00 | 0.00 | 51 | 1023.4 |
| 20260508135010 | 61 | 150 | 2.0 | 5.0 | 0.00 | 0.00 | 0.00 | 50 | 1023.5 |
| 20260508134508 | 60 | 219 | 2.0 | 7.0 | 0.00 | 0.00 | 0.00 | 50 | 1023.5 |
| 20260508134007 | 60 | 123 | 2.0 | 9.0 | 0.00 | 0.00 | 0.00 | 51 | 1023.5 |
| 20260508133507 | 60 | 202 | 3.0 | 9.0 | 0.00 | 0.00 | 0.00 | 54 | 1023.5 |
| 20260508133006 | 61 | 192 | 3.0 | 7.0 | 0.00 | 0.00 | 0.00 | 60 | 1023.6 |
| 20260508132508 | 62 | 50 | 1.0 | 6.0 | 0.00 | 0.00 | 0.00 | 62 | 1023.6 |
| 20260508132004 | 61 | 121 | 3.0 | 6.0 | 0.00 | 0.00 | 0.00 | 64 | 1023.6 |
| 20260508131503 | 61 | 117 | 2.0 | 7.0 | 0.00 | 0.00 | 0.00 | 66 | 1023.7 |
| 20260508131004 | 60 | 83 | 1.0 | 6.0 | 0.00 | 0.00 | 0.00 | 66 | 1023.7 |
| 20260508130503 | 60 | 118 | 2.0 | 6.0 | 0.00 | 0.00 | 0.00 | 66 | 1023.7 |
| 20260508130001 | 61 | 71 | 1.0 | 6.0 | 0.00 | 0.00 | 0.00 | 67 | 1023.7 |
| 20260508125600 | 60 | 16 | 1.0 | 6.0 | 0.00 | 0.00 | 0.00 | 67 | 1023.7 |
| 20260508125058 | 60 | 124 | 2.0 | 6.0 | 0.00 | 0.00 | 0.00 | 68 | 1023.7 |
| 20260508124558 | 59 | 135 | 1.0 | 5.0 | 0.00 | 0.00 | 0.00 | 71 | 1023.7 |
| 20260508124057 | 59 | 117 | 2.0 | 5.0 | 0.00 | 0.00 | 0.00 | 69 | 1023.7 |
| 20260508123557 | 59 | 101 | 3.0 | 6.0 | 0.00 | 0.00 | 0.00 | 68 | 1023.7 |
| 20260508123114 | 59 | 60 | 2.0 | 7.0 | 0.00 | 0.00 | 0.00 | 69 | 1023.7 |
| 20260508122555 | 59 | 189 | 3.0 | 7.0 | 0.00 | 0.00 | 0.00 | 67 | 1023.7 |
| 20260508122056 | 59 | 162 | 2.0 | 8.0 | 0.00 | 0.00 | 0.00 | 68 | 1023.7 |
| 20260508121607 | 59 | 60 | 3.0 | 8.0 | 0.00 | 0.00 | 0.00 | 67 | 1023.7 |
| 20260508121054 | 59 | 72 | 3.0 | 7.0 | 0.00 | 0.00 | 0.00 | 66 | 1023.6 |
| 20260508120553 | 59 | 169 | 2.0 | 7.0 | 0.00 | 0.00 | 0.00 | 67 | 1023.6 |
| 20260508120108 | 59 | 182 | 3.0 | 8.0 | 0.00 | 0.00 | 0.00 | 66 | 1023.7 |
| 20260508115553 | 59 | 171 | 3.0 | 8.0 | 0.00 | 0.00 | 0.00 | 63 | 1023.8 |
| 20260508115051 | 59 | 155 | 2.0 | 8.0 | 0.00 | 0.00 | 0.00 | 62 | 1023.8 |
| 20260508114559 | 59 | 166 | 3.0 | 8.0 | 0.00 | 0.00 | 0.00 | 63 | 1023.7 |
| 20260508114053 | 59 | 107 | 3.0 | 8.0 | 0.00 | 0.00 | 0.00 | 61 | 1023.7 |
| 20260508113553 | 59 | 139 | 2.0 | 8.0 | 0.00 | 0.00 | 0.00 | 64 | 1023.6 |
| 20260508113103 | 59 | 180 | 3.0 | 8.0 | 0.00 | 0.00 | 0.00 | 62 | 1023.6 |
| 20260508112548 | 59 | 355 | 2.0 | 7.0 | 0.00 | 0.00 | 0.00 | 62 | 1023.6 |
| 20260508112047 | 59 | 236 | 2.0 | 7.0 | 0.00 | 0.00 | 0.00 | 62 | 1023.6 |
| 20260508111550 | 59 | 128 | 3.0 | 8.0 | 0.00 | 0.00 | 0.00 | 62 | 1023.7 |
| 20260508111049 | 60 | 100 | 3.0 | 7.0 | 0.00 | 0.00 | 0.00 | 62 | 1023.7 |
| 20260508110546 | 59 | 128 | 2.0 | 5.0 | 0.00 | 0.00 | 0.00 | 65 | 1023.7 |
| 20260508110045 | 59 | 141 | 2.0 | 10.0 | 0.00 | 0.00 | 0.00 | 64 | 1023.7 |
| 20260508105545 | 59 | 203 | 3.0 | 8.0 | 0.00 | 0.00 | 0.00 | 62 | 1023.6 |
| 20260508105044 | 59 | 122 | 2.0 | 8.0 | 0.00 | 0.00 | 0.00 | 61 | 1023.7 |
| 20260508104547 | 60 | 213 | 2.0 | 9.0 | 0.00 | 0.00 | 0.00 | 61 | 1023.6 |
| 20260508104043 | 60 | 78 | 1.0 | 7.0 | 0.00 | 0.00 | 0.00 | 59 | 1023.6 |
| 20260508103542 | 59 | 110 | 2.0 | 7.0 | 0.00 | 0.00 | 0.00 | 62 | 1023.6 |
| 20260508103054 | 59 | 86 | 2.0 | 6.0 | 0.00 | 0.00 | 0.00 | 61 | 1023.6 |
| 20260508102539 | 58 | 175 | 2.0 | 8.0 | 0.00 | 0.00 | 0.00 | 63 | 1023.5 |
| 20260508102038 | 58 | 73 | 3.0 | 9.0 | 0.00 | 0.00 | 0.00 | 61 | 1023.6 |
| 20260508101544 | 58 | 182 | 4.0 | 9.0 | 0.00 | 0.00 | 0.00 | 62 | 1023.5 |
| 20260508101037 | 58 | 167 | 3.0 | 6.0 | 0.00 | 0.00 | 0.00 | 62 | 1023.5 |
| 20260508100536 | 58 | 17 | 2.0 | 7.0 | 0.00 | 0.00 | 0.00 | 61 | 1023.5 |
| 20260508100035 | 58 | 148 | 2.0 | 9.0 | 0.00 | 0.00 | 0.00 | 60 | 1023.4 |
| 20260508095537 | 57 | 21 | 3.0 | 9.0 | 0.00 | 0.00 | 0.00 | 57 | 1023.4 |
| 20260508095034 | 58 | 185 | 3.0 | 8.0 | 0.00 | 0.00 | 0.00 | 57 | 1023.4 |
| 20260508094535 | 58 | 159 | 3.0 | 6.0 | 0.00 | 0.00 | 0.00 | 53 | 1023.4 |
| 20260508094034 | 59 | 242 | 1.0 | 8.0 | 0.00 | 0.00 | 0.00 | 53 | 1023.4 |
| 20260508093533 | 58 | 52 | 3.0 | 8.0 | 0.00 | 0.00 | 0.00 | 54 | 1023.5 |
| 20260508093038 | 58 | 205 | 2.0 | 7.0 | 0.00 | 0.00 | 0.00 | 56 | 1023.4 |
| 20260508092531 | 58 | 164 | 2.0 | 7.0 | 0.00 | 0.00 | 0.00 | 56 | 1023.4 |
| 20260508092030 | 59 | 118 | 2.0 | 7.0 | 0.00 | 0.00 | 0.00 | 55 | 1023.5 |
| 20260508091533 | 59 | 76 | 2.0 | 6.0 | 0.00 | 0.00 | 0.00 | 56 | 1023.4 |
| 20260508091029 | 59 | 174 | 2.0 | 5.0 | 0.00 | 0.00 | 0.00 | 57 | 1023.4 |
| 20260508090528 | 59 | 93 | 2.0 | 5.0 | 0.00 | 0.00 | 0.00 | 57 | 1023.5 |
| 20260508090025 | 59 | 69 | 2.0 | 6.0 | 0.00 | 0.00 | 0.00 | 58 | 1023.4 |
| 20260508085527 | 58 | 55 | 1.0 | 6.0 | 0.00 | 0.00 | 0.00 | 64 | 1023.4 |
| 20260508085024 | 58 | 186 | 1.0 | 6.0 | 0.00 | 0.00 | 0.00 | 64 | 1023.4 |
| 20260508084523 | 58 | 122 | 2.0 | 6.0 | 0.00 | 0.00 | 0.00 | 63 | 1023.4 |
| 20260508084021 | 58 | 36 | 1.0 | 4.0 | 0.00 | 0.00 | 0.00 | 64 | 1023.4 |
| 20260508083521 | 58 | 200 | 1.0 | 6.0 | 0.00 | 0.00 | 0.00 | 64 | 1023.3 |
| 20260508083018 | 58 | 33 | 1.0 | 4.0 | 0.00 | 0.00 | 0.00 | 64 | 1023.3 |
| 20260508082522 | 58 | 110 | 1.0 | 4.0 | 0.00 | 0.00 | 0.00 | 64 | 1023.2 |
| 20260508082018 | 57 | 67 | 2.0 | 5.0 | 0.00 | 0.00 | 0.00 | 64 | 1023.3 |
| 20260508081517 | 58 | 202 | 2.0 | 4.0 | 0.00 | 0.00 | 0.00 | 62 | 1023.3 |
| 20260508081017 | 57 | 43 | 1.0 | 4.0 | 0.00 | 0.00 | 0.00 | 62 | 1023.2 |
| 20260508080513 | 57 | 200 | 1.0 | 5.0 | 0.00 | 0.00 | 0.00 | 62 | 1023.2 |
| 20260508080013 | 57 | 63 | 1.0 | 5.0 | 0.00 | 0.00 | 0.00 | 63 | 1023.3 |
| 20260508075512 | 57 | 127 | 2.0 | 4.0 | 0.00 | 0.00 | 0.00 | 62 | 1023.2 |
| 20260508075010 | 56 | 297 | 1.0 | 7.0 | 0.00 | 0.00 | 0.00 | 64 | 1023.1 |
| 20260508074514 | 56 | 186 | 3.0 | 7.0 | 0.00 | 0.00 | 0.00 | 62 | 1023.1 |
| 20260508074008 | 56 | 174 | 1.0 | 5.0 | 0.00 | 0.00 | 0.00 | 64 | 1023.1 |
| 20260508073507 | 56 | 67 | 2.0 | 5.0 | 0.00 | 0.00 | 0.00 | 63 | 1023.1 |
| 20260508073006 | 56 | 218 | 2.0 | 6.0 | 0.00 | 0.00 | 0.00 | 63 | 1023.1 |
| 20260508072505 | 56 | 83 | 1.0 | 6.0 | 0.00 | 0.00 | 0.00 | 65 | 1023.1 |
| 20260508072003 | 56 | 205 | 2.0 | 6.0 | 0.00 | 0.00 | 0.00 | 65 | 1023.0 |
| 20260508071505 | 56 | 109 | 1.0 | 4.0 | 0.00 | 0.00 | 0.00 | 69 | 1023.1 |
| 20260508071100 | 55 | 105 | 1.0 | 4.0 | 0.00 | 0.00 | 0.00 | 70 | 1023.1 |
| 20260508070602 | 55 | 52 | 1.0 | 6.0 | 0.00 | 0.00 | 0.00 | 70 | 1023.0 |
| 20260508070059 | 55 | 92 | 2.0 | 6.0 | 0.00 | 0.00 | 0.00 | 68 | 1022.9 |
| 20260508065557 | 55 | 128 | 1.0 | 4.0 | 0.00 | 0.00 | 0.00 | 70 | 1022.8 |
| 20260508065055 | 55 | 61 | 1.0 | 5.0 | 0.00 | 0.00 | 0.00 | 72 | 1022.8 |
| 20260508064555 | 54 | 94 | 1.0 | 5.0 | 0.00 | 0.00 | 0.00 | 72 | 1022.8 |
| 20260508064052 | 54 | 89 | 1.0 | 5.0 | 0.00 | 0.00 | 0.00 | 74 | 1022.7 |
| 20260508063551 | 53 | 77 | 1.0 | 5.0 | 0.00 | 0.00 | 0.00 | 75 | 1022.7 |
| 20260508063101 | 53 | 202 | 0.0 | 4.0 | 0.00 | 0.00 | 0.00 | 77 | 1022.7 |
| 20260508062551 | 52 | 194 | 2.0 | 4.0 | 0.00 | 0.00 | 0.00 | 78 | 1022.6 |
| 20260508062046 | 52 | 76 | 1.0 | 4.0 | 0.00 | 0.00 | 0.00 | 80 | 1022.5 |
| 20260508061547 | 52 | 245 | 1.0 | 3.0 | 0.00 | 0.00 | 0.00 | 84 | 1022.5 |
| 20260508061043 | 51 | 76 | 0.0 | 3.0 | 0.00 | 0.00 | 0.00 | 87 | 1022.4 |
| 20260508060541 | 50 | 164 | 1.0 | 2.0 | 0.00 | 0.00 | 0.00 | 91 | 1022.3 |
| 20260508060040 | 49 | 165 | 1.0 | 3.0 | 0.00 | 0.00 | 0.00 | 93 | 1022.2 |
| 20260508055538 | 49 | 76 | 0.0 | 2.0 | 0.00 | 0.00 | 0.00 | 96 | 1022.2 |
| 20260508055037 | 48 | 158 | 0.0 | 2.0 | 0.00 | 0.00 | 0.00 | 96 | 1022.1 |
| 20260508054536 | 47 | 165 | 1.0 | 2.0 | 0.00 | 0.00 | 0.00 | 97 | 1022.2 |
| 20260508054035 | 47 | 182 | 0.0 | 2.0 | 0.00 | 0.00 | 0.00 | 97 | 1022.1 |
| 20260508053533 | 46 | 194 | 0.0 | 2.0 | 0.00 | 0.00 | 0.00 | 97 | 1022.1 |
| 20260508053032 | 46 | 198 | 0.0 | 1.0 | 0.00 | 0.00 | 0.00 | 97 | 1022.0 |
| 20260508052530 | 45 | 198 | 0.0 | 1.0 | 0.00 | 0.00 | 0.00 | 97 | 1022.0 |
| 20260508052030 | 44 | 198 | 0.0 | 0.0 | 0.00 | 0.00 | 0.00 | 97 | 1022.0 |
| 20260508051527 | 43 | 198 | 0.0 | 0.0 | 0.00 | 0.00 | 0.00 | 97 | 1022.0 |
| 20260508051027 | 42 | 198 | 0.0 | 0.0 | 0.00 | 0.00 | 0.00 | 96 | 1022.0 |
| 20260508050525 | 42 | 198 | 0.0 | 0.0 | 0.00 | 0.00 | 0.00 | 96 | 1021.9 |
| 20260508050033 | 42 | 198 | 0.0 | 0.0 | 0.00 | 0.00 | 0.00 | 97 | 1021.8 |
| 20260508045524 | 42 | 198 | 0.0 | 0.0 | 0.00 | 0.00 | 0.00 | 97 | 1021.8 |
| 20260508045021 | 41 | 198 | 0.0 | 0.0 | 0.00 | 0.00 | 0.00 | 97 | 1021.8 |
| 20260508044520 | 41 | 198 | 0.0 | 0.0 | 0.00 | 0.00 | 0.00 | 97 | 1021.8 |
| 20260508044020 | 40 | 198 | 0.0 | 0.0 | 0.00 | 0.00 | 0.00 | 97 | 1021.7 |
| 20260508043519 | 39 | 198 | 0.0 | 0.0 | 0.00 | 0.00 | 0.00 | 96 | 1021.7 |
| 20260508043018 | 38 | 198 | 0.0 | 0.0 | 0.00 | 0.00 | 0.00 | 96 | 1021.7 |
| 20260508042518 | 37 | 198 | 0.0 | 0.0 | 0.00 | 0.00 | 0.00 | 95 | 1021.8 |
| 20260508042022 | 37 | 198 | 0.0 | 0.0 | 0.00 | 0.00 | 0.00 | 95 | 1021.7 |
| 20260508041520 | 37 | 198 | 0.0 | 0.0 | 0.00 | 0.00 | 0.00 | 94 | 1021.7 |
| 20260508041018 | 37 | 198 | 0.0 | 0.0 | 0.00 | 0.00 | 0.00 | 94 | 1021.8 |
| 20260508040518 | 38 | 198 | 0.0 | 0.0 | 0.00 | 0.00 | 0.00 | 95 | 1021.7 |
| 20260508040016 | 39 | 198 | 0.0 | 0.0 | 0.00 | 0.00 | 0.00 | 95 | 1021.7 |
| 20260508035515 | 39 | 198 | 0.0 | 0.0 | 0.00 | 0.00 | 0.00 | 95 | 1021.8 |
| 20260508035015 | 39 | 198 | 0.0 | 0.0 | 0.00 | 0.00 | 0.00 | 95 | 1021.7 |
| 20260508034515 | 39 | 198 | 0.0 | 0.0 | 0.00 | 0.00 | 0.00 | 95 | 1021.7 |
| 20260508034014 | 39 | 198 | 0.0 | 0.0 | 0.00 | 0.00 | 0.00 | 95 | 1021.7 |
| 20260508033513 | 39 | 198 | 0.0 | 0.0 | 0.00 | 0.00 | 0.00 | 95 | 1021.7 |
| 20260508033012 | 39 | 198 | 0.0 | 0.0 | 0.00 | 0.00 | 0.00 | 96 | 1021.6 |
| 20260508032512 | 39 | 198 | 0.0 | 0.0 | 0.00 | 0.00 | 0.00 | 96 | 1021.6 |
| 20260508032011 | 39 | 198 | 0.0 | 0.0 | 0.00 | 0.00 | 0.00 | 95 | 1021.6 |
| 20260508031511 | 39 | 198 | 0.0 | 0.0 | 0.00 | 0.00 | 0.00 | 95 | 1021.6 |
| 20260508031011 | 38 | 198 | 0.0 | 0.0 | 0.00 | 0.00 | 0.00 | 95 | 1021.6 |
| 20260508030511 | 38 | 198 | 0.0 | 0.0 | 0.00 | 0.00 | 0.00 | 94 | 1021.6 |
| 20260508030011 | 38 | 198 | 0.0 | 0.0 | 0.00 | 0.00 | 0.00 | 94 | 1021.6 |
| 20260508025509 | 39 | 198 | 0.0 | 0.0 | 0.00 | 0.00 | 0.00 | 94 | 1021.5 |
| 20260508025010 | 40 | 198 | 0.0 | 0.0 | 0.00 | 0.00 | 0.00 | 95 | 1021.5 |
| 20260508024509 | 40 | 198 | 0.0 | 0.0 | 0.00 | 0.00 | 0.00 | 95 | 1021.5 |
| 20260508024009 | 40 | 198 | 0.0 | 0.0 | 0.00 | 0.00 | 0.00 | 95 | 1021.5 |
| 20260508023509 | 40 | 198 | 0.0 | 0.0 | 0.00 | 0.00 | 0.00 | 95 | 1021.5 |
| 20260508023008 | 40 | 198 | 0.0 | 0.0 | 0.00 | 0.00 | 0.00 | 95 | 1021.4 |
| 20260508022511 | 39 | 198 | 0.0 | 0.0 | 0.00 | 0.00 | 0.00 | 95 | 1021.5 |
| 20260508022008 | 39 | 198 | 0.0 | 0.0 | 0.00 | 0.00 | 0.00 | 95 | 1021.5 |
| 20260508021507 | 39 | 198 | 0.0 | 0.0 | 0.00 | 0.00 | 0.00 | 95 | 1021.5 |
| 20260508021009 | 39 | 198 | 0.0 | 0.0 | 0.00 | 0.00 | 0.00 | 95 | 1021.4 |
| 20260508020506 | 39 | 198 | 0.0 | 0.0 | 0.00 | 0.00 | 0.00 | 95 | 1021.4 |
| 20260508020006 | 38 | 198 | 0.0 | 0.0 | 0.00 | 0.00 | 0.00 | 94 | 1021.3 |
| 20260508015506 | 38 | 198 | 0.0 | 0.0 | 0.00 | 0.00 | 0.00 | 94 | 1021.3 |
| 20260508015005 | 38 | 198 | 0.0 | 0.0 | 0.00 | 0.00 | 0.00 | 94 | 1021.3 |
| 20260508014505 | 38 | 198 | 0.0 | 0.0 | 0.00 | 0.00 | 0.00 | 94 | 1021.2 |
| 20260508014005 | 38 | 198 | 0.0 | 0.0 | 0.00 | 0.00 | 0.00 | 93 | 1021.3 |
| 20260508013504 | 39 | 198 | 0.0 | 0.0 | 0.00 | 0.00 | 0.00 | 94 | 1021.2 |
| 20260508013003 | 40 | 198 | 0.0 | 0.0 | 0.00 | 0.00 | 0.00 | 94 | 1021.1 |
| 20260508012506 | 39 | 198 | 0.0 | 0.0 | 0.00 | 0.00 | 0.00 | 94 | 1021.1 |
| 20260508012003 | 39 | 198 | 0.0 | 0.0 | 0.00 | 0.00 | 0.00 | 94 | 1021.0 |
| 20260508011502 | 39 | 198 | 0.0 | 0.0 | 0.00 | 0.00 | 0.00 | 94 | 1021.1 |
| 20260508011002 | 39 | 198 | 0.0 | 0.0 | 0.00 | 0.00 | 0.00 | 95 | 1021.0 |
| 20260508010502 | 39 | 198 | 0.0 | 0.0 | 0.00 | 0.00 | 0.00 | 95 | 1021.1 |
| 20260508010001 | 38 | 198 | 0.0 | 0.0 | 0.00 | 0.00 | 0.00 | 94 | 1021.1 |
| 20260508005503 | 38 | 198 | 0.0 | 0.0 | 0.00 | 0.00 | 0.00 | 94 | 1021.1 |
| 20260508005001 | 37 | 198 | 0.0 | 0.0 | 0.00 | 0.00 | 0.00 | 93 | 1021.0 |
| 20260508004501 | 37 | 198 | 0.0 | 0.0 | 0.00 | 0.00 | 0.00 | 93 | 1021.0 |
| 20260508004104 | 36 | 198 | 0.0 | 0.0 | 0.00 | 0.00 | 0.00 | 93 | 1021.0 |
| 20260508003600 | 36 | 198 | 0.0 | 0.0 | 0.00 | 0.00 | 0.00 | 92 | 1021.0 |
| 20260508003100 | 36 | 198 | 0.0 | 0.0 | 0.00 | 0.00 | 0.00 | 92 | 1021.0 |
| 20260508002558 | 37 | 198 | 0.0 | 0.0 | 0.00 | 0.00 | 0.00 | 92 | 1020.9 |
| 20260508002057 | 37 | 198 | 0.0 | 0.0 | 0.00 | 0.00 | 0.00 | 92 | 1020.9 |
| 20260508001617 | 37 | 198 | 0.0 | 0.0 | 0.00 | 0.00 | 0.00 | 92 | 1020.9 |
| 20260508001057 | 37 | 198 | 0.0 | 0.0 | 0.00 | 0.00 | 0.00 | 93 | 1020.8 |
| 20260508000557 | 37 | 198 | 0.0 | 0.0 | 0.00 | 0.00 | 0.00 | 92 | 1020.9 |
| 20260508000056 | 37 | 198 | 0.0 | 0.0 | 0.00 | 0.00 | 0.00 | 91 | 1020.8 |
| 20260507235557 | 37 | 198 | 0.0 | 0.0 | 0.00 | 0.00 | 0.00 | 91 | 1020.8 |
| 20260507235053 | 38 | 198 | 0.0 | 1.0 | 0.00 | 0.00 | 0.00 | 91 | 1020.8 |
| 20260507234553 | 39 | 198 | 0.0 | 0.0 | 0.00 | 0.00 | 0.00 | 92 | 1020.8 |
| 20260507234106 | 39 | 198 | 0.0 | 0.0 | 0.00 | 0.00 | 0.00 | 92 | 1020.8 |
| 20260507233551 | 39 | 198 | 0.0 | 0.0 | 0.00 | 0.00 | 0.00 | 92 | 1020.8 |
| 20260507233051 | 39 | 198 | 0.0 | 0.0 | 0.00 | 0.00 | 0.00 | 92 | 1020.7 |
| 20260507232550 | 39 | 198 | 0.0 | 0.0 | 0.00 | 0.00 | 0.00 | 92 | 1020.7 |
| 20260507232049 | 39 | 198 | 0.0 | 0.0 | 0.00 | 0.00 | 0.00 | 91 | 1020.6 |
| 20260507231548 | 39 | 198 | 0.0 | 0.0 | 0.00 | 0.00 | 0.00 | 91 | 1020.6 |
| 20260507231047 | 39 | 198 | 0.0 | 0.0 | 0.00 | 0.00 | 0.00 | 91 | 1020.6 |
| 20260507230547 | 39 | 198 | 0.0 | 0.0 | 0.00 | 0.00 | 0.00 | 91 | 1020.5 |
| 20260507230046 | 39 | 198 | 0.0 | 0.0 | 0.00 | 0.00 | 0.00 | 91 | 1020.4 |
| 20260507225548 | 39 | 198 | 0.0 | 0.0 | 0.00 | 0.00 | 0.00 | 91 | 1020.5 |
| 20260507225045 | 39 | 198 | 0.0 | 0.0 | 0.00 | 0.00 | 0.00 | 91 | 1020.4 |
| 20260507224552 | 39 | 198 | 0.0 | 0.0 | 0.00 | 0.00 | 0.00 | 90 | 1020.4 |
| 20260507224043 | 40 | 198 | 0.0 | 0.0 | 0.00 | 0.00 | 0.00 | 91 | 1020.4 |
| 20260507223542 | 40 | 198 | 0.0 | 0.0 | 0.00 | 0.00 | 0.00 | 90 | 1020.4 |
| 20260507223042 | 40 | 198 | 0.0 | 0.0 | 0.00 | 0.00 | 0.00 | 90 | 1020.3 |
| 20260507222541 | 40 | 198 | 0.0 | 0.0 | 0.00 | 0.00 | 0.00 | 90 | 1020.2 |
| 20260507222044 | 41 | 198 | 0.0 | 0.0 | 0.00 | 0.00 | 0.00 | 91 | 1020.1 |
| 20260507221539 | 41 | 198 | 0.0 | 0.0 | 0.00 | 0.00 | 0.00 | 90 | 1020.1 |
| 20260507221039 | 40 | 198 | 0.0 | 0.0 | 0.00 | 0.00 | 0.00 | 90 | 1020.2 |
| 20260507220539 | 40 | 198 | 0.0 | 0.0 | 0.00 | 0.00 | 0.00 | 90 | 1020.3 |
| 20260507220043 | 40 | 198 | 0.0 | 0.0 | 0.00 | 0.00 | 0.00 | 89 | 1020.3 |
| 20260507215537 | 41 | 198 | 0.0 | 0.0 | 0.00 | 0.00 | 0.00 | 89 | 1020.2 |
| 20260507215039 | 41 | 198 | 0.0 | 0.0 | 0.00 | 0.00 | 0.00 | 89 | 1020.2 |
| 20260507214538 | 41 | 198 | 0.0 | 0.0 | 0.00 | 0.00 | 0.00 | 89 | 1020.2 |
| 20260507214037 | 41 | 198 | 0.0 | 0.0 | 0.00 | 0.00 | 0.00 | 89 | 1020.1 |
| 20260507213537 | 42 | 198 | 0.0 | 0.0 | 0.00 | 0.00 | 0.00 | 89 | 1020.1 |
| 20260507213036 | 42 | 198 | 0.0 | 0.0 | 0.00 | 0.00 | 0.00 | 89 | 1020.1 |
| 20260507212535 | 42 | 198 | 0.0 | 0.0 | 0.00 | 0.00 | 0.00 | 89 | 1020.1 |
| 20260507212036 | 42 | 198 | 0.0 | 0.0 | 0.00 | 0.00 | 0.00 | 89 | 1020.1 |
| 20260507211536 | 42 | 198 | 0.0 | 0.0 | 0.00 | 0.00 | 0.00 | 89 | 1020.1 |
| 20260507211034 | 42 | 198 | 0.0 | 0.0 | 0.00 | 0.00 | 0.00 | 88 | 1020.0 |
| 20260507210536 | 42 | 198 | 0.0 | 0.0 | 0.00 | 0.00 | 0.00 | 87 | 1020.0 |
| 20260507210034 | 42 | 198 | 0.0 | 0.0 | 0.00 | 0.00 | 0.00 | 86 | 1019.9 |
| 20260507205535 | 42 | 198 | 0.0 | 0.0 | 0.00 | 0.00 | 0.00 | 86 | 1019.8 |
| 20260507205034 | 42 | 198 | 0.0 | 0.0 | 0.00 | 0.00 | 0.00 | 85 | 1019.8 |
| 20260507204533 | 43 | 198 | 0.0 | 0.0 | 0.00 | 0.00 | 0.00 | 85 | 1019.8 |
| 20260507204034 | 43 | 198 | 0.0 | 0.0 | 0.00 | 0.00 | 0.00 | 85 | 1019.7 |
| 20260507203533 | 43 | 198 | 0.0 | 0.0 | 0.00 | 0.00 | 0.00 | 85 | 1019.7 |
| 20260507203034 | 44 | 198 | 0.0 | 0.0 | 0.00 | 0.00 | 0.00 | 85 | 1019.7 |
| 20260507202531 | 44 | 198 | 0.0 | 0.0 | 0.00 | 0.00 | 0.00 | 84 | 1019.7 |
| 20260507202030 | 44 | 198 | 0.0 | 0.0 | 0.00 | 0.00 | 0.00 | 84 | 1019.7 |
| 20260507201531 | 45 | 198 | 0.0 | 0.0 | 0.00 | 0.00 | 0.00 | 83 | 1019.6 |
| 20260507201030 | 45 | 198 | 0.0 | 0.0 | 0.00 | 0.00 | 0.00 | 83 | 1019.6 |
| 20260507200532 | 45 | 198 | 0.0 | 0.0 | 0.00 | 0.00 | 0.00 | 83 | 1019.6 |
| 20260507200030 | 46 | 198 | 0.0 | 0.0 | 0.00 | 0.00 | 0.00 | 82 | 1019.6 |
| 20260507195529 | 46 | 198 | 0.0 | 0.0 | 0.00 | 0.00 | 0.00 | 82 | 1019.5 |
| 20260507195029 | 46 | 198 | 0.0 | 0.0 | 0.00 | 0.00 | 0.00 | 81 | 1019.5 |
| 20260507194529 | 47 | 198 | 0.0 | 0.0 | 0.00 | 0.00 | 0.00 | 81 | 1019.5 |
| 20260507194027 | 47 | 198 | 0.0 | 0.0 | 0.00 | 0.00 | 0.00 | 80 | 1019.5 |
| 20260507193527 | 47 | 198 | 0.0 | 0.0 | 0.00 | 0.00 | 0.00 | 79 | 1019.4 |
| 20260507193031 | 48 | 198 | 0.0 | 0.0 | 0.00 | 0.00 | 0.00 | 79 | 1019.4 |
| 20260507192526 | 48 | 198 | 0.0 | 0.0 | 0.00 | 0.00 | 0.00 | 78 | 1019.4 |
| 20260507192026 | 49 | 198 | 0.0 | 0.0 | 0.00 | 0.00 | 0.00 | 78 | 1019.3 |
| 20260507191526 | 49 | 198 | 0.0 | 0.0 | 0.00 | 0.00 | 0.00 | 77 | 1019.3 |
| 20260507191025 | 49 | 198 | 0.0 | 0.0 | 0.00 | 0.00 | 0.00 | 77 | 1019.2 |
| 20260507190525 | 50 | 198 | 0.0 | 0.0 | 0.00 | 0.00 | 0.00 | 76 | 1019.2 |
| 20260507190025 | 50 | 198 | 0.0 | 0.0 | 0.00 | 0.00 | 0.00 | 76 | 1019.1 |
| 20260507185523 | 51 | 198 | 0.0 | 0.0 | 0.00 | 0.00 | 0.00 | 75 | 1019.1 |
| 20260507185026 | 51 | 198 | 0.0 | 0.0 | 0.00 | 0.00 | 0.00 | 75 | 1019.1 |
| 20260507184523 | 52 | 198 | 0.0 | 2.0 | 0.00 | 0.00 | 0.00 | 74 | 1019.0 |
| 20260507184027 | 52 | 198 | 0.0 | 2.0 | 0.00 | 0.00 | 0.00 | 74 | 1018.9 |
| 20260507183523 | 52 | 198 | 0.0 | 3.0 | 0.00 | 0.00 | 0.00 | 73 | 1019.0 |
| 20260507183023 | 52 | 198 | 1.0 | 3.0 | 0.00 | 0.00 | 0.00 | 73 | 1019.0 |
| 20260507182523 | 52 | 153 | 0.0 | 4.0 | 0.00 | 0.00 | 0.00 | 73 | 1018.9 |
| 20260507182022 | 52 | 202 | 1.0 | 4.0 | 0.00 | 0.00 | 0.00 | 72 | 1018.9 |
| 20260507181521 | 53 | 140 | 1.0 | 2.0 | 0.00 | 0.00 | 0.00 | 72 | 1018.9 |
| 20260507181022 | 53 | 150 | 0.0 | 3.0 | 0.00 | 0.00 | 0.00 | 72 | 1018.9 |
| 20260507180523 | 53 | 168 | 1.0 | 3.0 | 0.00 | 0.00 | 0.00 | 72 | 1018.8 |
| 20260507180020 | 53 | 188 | 1.0 | 3.0 | 0.00 | 0.00 | 0.00 | 72 | 1018.8 |
| 20260507175520 | 53 | 185 | 1.0 | 3.0 | 0.00 | 0.00 | 0.00 | 72 | 1018.7 |
| 20260507175023 | 53 | 188 | 0.0 | 3.0 | 0.00 | 0.00 | 0.00 | 72 | 1018.7 |
| 20260507174532 | 53 | 188 | 1.0 | 3.0 | 0.00 | 0.00 | 0.00 | 72 | 1018.7 |
| 20260507174018 | 53 | 174 | 1.0 | 4.0 | 0.00 | 0.00 | 0.00 | 72 | 1018.6 |
| 20260507173518 | 53 | 193 | 1.0 | 5.0 | 0.00 | 0.00 | 0.00 | 71 | 1018.6 |
| 20260507173019 | 53 | 153 | 1.0 | 6.0 | 0.00 | 0.00 | 0.00 | 71 | 1018.6 |
| 20260507172519 | 54 | 190 | 2.0 | 6.0 | 0.00 | 0.00 | 0.00 | 71 | 1018.5 |
| 20260507172016 | 54 | 152 | 3.0 | 7.0 | 0.00 | 0.00 | 0.00 | 70 | 1018.5 |
| 20260507171518 | 54 | 204 | 1.0 | 5.0 | 0.00 | 0.00 | 0.00 | 70 | 1018.4 |
| 20260507171019 | 54 | 181 | 1.0 | 5.0 | 0.00 | 0.00 | 0.00 | 69 | 1018.4 |
| 20260507170515 | 54 | 183 | 2.0 | 5.0 | 0.00 | 0.00 | 0.00 | 69 | 1018.4 |
| 20260507170021 | 54 | 188 | 1.0 | 4.0 | 0.00 | 0.00 | 0.00 | 69 | 1018.3 |
| 20260507165515 | 55 | 178 | 1.0 | 4.0 | 0.00 | 0.00 | 0.00 | 69 | 1018.3 |
| 20260507165015 | 55 | 185 | 1.0 | 4.0 | 0.00 | 0.00 | 0.00 | 68 | 1018.3 |
| 20260507164515 | 54 | 188 | 0.0 | 4.0 | 0.00 | 0.00 | 0.00 | 70 | 1018.2 |
| 20260507164017 | 55 | 172 | 2.0 | 5.0 | 0.00 | 0.00 | 0.00 | 68 | 1018.3 |
| 20260507163515 | 55 | 129 | 1.0 | 6.0 | 0.00 | 0.00 | 0.00 | 68 | 1018.3 |
| 20260507163014 | 55 | 105 | 1.0 | 4.0 | 0.00 | 0.00 | 0.00 | 67 | 1018.3 |
| 20260507162513 | 55 | 202 | 1.0 | 4.0 | 0.00 | 0.00 | 0.00 | 67 | 1018.3 |